This is the latest recevied weather packets stored in our database for station/object K2ATL. If no packets are shown the sender has not sent any weather packets the latest 10 day(s).
| Time | Temp. | Humidity | Pressure | Rain* | Wind** | Luminosity | Snow |
|---|---|---|---|---|---|---|---|
| 1777842133 | 16.67° C | 41% | 1102.3 hPa | 0 mm | - | 574 W/m² | - |
| 1777841828 | 16.11° C | 40% | 1102.4 hPa | 0 mm | - | 593 W/m² | - |
| 1777841524 | 16.67° C | 38% | 1102.8 hPa | 0 mm | - | 604 W/m² | - |
| 1777841221 | 17.22° C | 39% | 1102.5 hPa | 0 mm | - | 622 W/m² | - |
| 1777840919 | 16.11° C | 43% | 1102.5 hPa | 0 mm | - | 639 W/m² | - |
| 1777840615 | 17.22° C | 38% | 1102.5 hPa | 0 mm | - | 657 W/m² | - |
| 1777840313 | 16.11° C | 43% | 1102.5 hPa | 0 mm | - | 676 W/m² | - |
| 1777840010 | 15.56° C | 43% | 1102.6 hPa | 0 mm | - | 689 W/m² | - |
| 1777839708 | 16.67° C | 45% | 1102.7 hPa | 0 mm | - | 707 W/m² | - |
| 1777839406 | 15° C | 48% | 1102.7 hPa | 0 mm | - | 724 W/m² | - |
| 1777839103 | 16.11° C | 44% | 1102.8 hPa | 0 mm | - | 737 W/m² | - |
| 1777838799 | 15.56° C | 47% | 1103 hPa | 0 mm | - | 748 W/m² | - |
| 1777838495 | 16.11° C | 44% | 1103.3 hPa | 0 mm | - | 761 W/m² | - |
| 1777838193 | 17.22° C | 42% | 1103.2 hPa | 0 mm | - | 777 W/m² | - |
| 1777837890 | 17.78° C | 43% | 1103.4 hPa | 0 mm | - | 792 W/m² | - |
| 1777837587 | 16.67° C | 43% | 1103.4 hPa | 0 mm | - | 802 W/m² | - |
| 1777837282 | 17.22° C | 44% | 1103.5 hPa | 0 mm | - | 815 W/m² | - |
| 1777836979 | 17.22° C | 43% | 1103.4 hPa | 0 mm | - | 825 W/m² | - |
| 1777836674 | 18.33° C | 41% | 1103.4 hPa | 0 mm | - | 837 W/m² | - |
| 1777836370 | 16.11° C | 46% | 1103.4 hPa | 0 mm | - | 846 W/m² | - |
| 1777836066 | 17.22° C | 42% | 1103.5 hPa | 0 mm | - | 858 W/m² | - |
| 1777835763 | 16.11° C | 44% | 1103.7 hPa | 0 mm | - | 871 W/m² | - |
| 1777835460 | 16.11° C | 43% | 1103.7 hPa | 0 mm | - | 880 W/m² | - |
| 1777835157 | 16.11° C | 44% | 1103.9 hPa | 0 mm | - | 888 W/m² | - |
| 1777834854 | 14.44° C | 46% | 1103.8 hPa | 0 mm | - | 895 W/m² | - |
* Rain latest hour (hover to see other rain measurements)
** Current wind speed in m/s (hover to see current wind gust speed)